Wind_Speed
68 68 68 68 68 68 69 69 70 69 68 67 69 69 70 69 69 69 70 70 71 72 73 74 76 77 78 79 80 80 81 82 83 83 83 83 84 85
67 68 68 68 68 69 70 70 70 70 68 66 67 68 69 69 69 69 70 70 71 72 74 75 76 77 77 78 79 79 79 78 78 78 78 78 78 78
67 68 68 68 68 69 69 69 69 69 68 66 67 68 68 69 69 69 70 71 72 73 74 75 76 76 77 77 76 76 75 73 73 72 72 72 71 71
67 68 67 68 67 68 68 67 67 68 68 66 66 67 67 68 68 69 70 71 71 72 73 73 73 74 74 73 73 71 70 69 68 68 67 67 66 66
66 66 66 66 66 67 67 66 66 67 67 66 65 66 67 68 69 69 70 70 71 71 71 71 71 70 70 69 69 68 67 66 65 64 64 63 62 61
65 64 64 65 66 66 66 66 66 67 67 67 65 65 66 67 69 69 69 69 68 68 68 68 67 67 66 66 65 64 63 62 61 60 60 58 57 57
63 63 64 65 65 65 65 66 66 67 66 66 65 66 65 67 68 69 69 67 66 65 66 65 65 63 62 62 61 60 60 59 58 57 56 55 54 54
62 64 64 64 64 64 65 66 66 66 65 65 65 65 64 66 67 67 67 66 64 61 64 61 61 60 59 58 57 57 56 56 55 54 53 51 50 51
62 64 64 63 64 65 65 65 64 64 64 64 64 63 63 64 65 65 64 63 61 59 61 59 58 58 56 55 55 55 54 53 52 51 50 47 48 50
62 62 62 62 62 62 62 62 61 61 61 62 61 61 62 62 63 62 61 60 58 55 58 58 55 54 53 52 53 53 52 51 49 47 45 44 46 50
60 60 60 59 59 59 59 58 58 57 58 59 59 59 59 59 59 59 58 58 55 51 54 57 54 52 50 49 50 51 49 47 46 43 41 42 46 50
59 58 57 57 57 57 56 55 54 55 56 56 56 56 56 56 56 56 56 56 53 50 50 53 52 52 48 45 47 47 47 44 42 39 38 40 46 51
56 55 54 54 54 53 53 53 53 53 53 53 53 53 53 52 52 53 53 53 51 48 48 50 50 50 50 44 42 44 44 41 38 34 34 39 46 52
53 52 52 51 51 51 51 51 51 51 50 50 50 49 49 49 49 49 49 48 47 47 47 49 49 48 47 44 40 40 40 37 32 30 32 39 46 52
52 51 50 49 48 48 48 48 48 47 47 47 46 46 47 47 46 46 45 45 44 44 46 47 47 46 45 42 39 38 35 31 27 25 30 39 46 54
49 48 47 46 45 45 44 45 45 45 44 44 44 44 44 44 43 43 42 42 41 41 43 45 44 43 41 39 37 35 32 27 22 23 30 39 48 56
46 45 44 44 43 42 42 42 42 42 42 42 42 42 42 41 40 40 40 40 40 40 39 41 41 39 38 36 33 31 27 22 18 23 31 38 47 56
44 43 42 41 40 40 40 40 39 39 39 39 39 39 39 38 37 37 38 39 39 38 38 37 36 35 34 31 30 27 22 16 15 24 31 39 48 59
41 39 38 37 37 37 37 36 36 36 36 37 37 37 36 35 35 35 36 38 38 36 35 34 33 31 28 26 25 22 16 11 15 25 33 41 50 60
37 36 36 35 35 34 33 32 33 33 34 34 35 34 34 33 33 33 35 36 35 33 32 30 30 27 24 21 19 17 12 9 15 26 35 43 52 61
34 33 33 33 32 30 29 29 30 31 32 32 32 32 31 31 32 33 33 34 32 30 28 26 26 24 20 18 16 12 7 9 17 29 38 46 54 62
31 31 30 29 27 26 27 27 28 29 30 30 30 30 30 30 31 31 32 30 28 26 25 23 22 20 17 15 12 9 5 11 19 30 40 47 55 63
29 28 27 25 25 24 25 26 27 28 28 28 28 28 28 29 30 30 29 27 25 23 22 20 19 17 14 11 9 6 5 12 21 30 41 49 57 65
Wind_Direction
293 293 294 294 294 293 294 294 294 293 293 293 293 293 293 292 292 291 291 291 291 291 291 291 290 290 289 289 288 287 286 284 281 278 275 272 267 263
292 292 293 293 293 294 294 293 293 293 293 292 293 293 293 293 293 292 292 292 293 293 293 293 292 292 291 291 290 289 287 284 281 278 275 272 267 262
292 292 292 292 293 293 293 293 293 293 292 292 293 293 293 293 294 294 294 294 294 295 295 295 294 293 293 293 292 290 288 284 281 278 275 272 267 260
291 291 292 292 293 293 293 293 293 293 293 293 293 293 293 293 294 294 295 295 296 296 296 295 295 294 294 294 292 290 288 285 282 279 275 271 265 259
291 291 292 292 292 293 293 293 292 292 293 293 293 293 293 293 294 295 295 296 297 297 297 296 296 296 295 295 293 291 289 286 283 279 275 271 264 256
292 292 292 292 292 293 293 293 292 292 292 293 293 293 293 294 294 295 296 297 298 298 297 297 297 297 297 295 294 292 290 287 284 279 276 269 262 251
292 292 292 292 293 293 292 292 292 292 292 293 293 293 294 294 295 296 297 298 299 299 298 299 298 298 297 296 294 292 290 288 284 280 274 267 257 245
293 293 292 292 292 292 293 292 292 292 293 293 293 294 294 295 295 297 298 299 300 299 299 300 300 300 299 297 295 293 291 288 283 279 272 263 250 236
293 293 293 292 292 292 292 292 292 292 293 293 294 295 295 295 296 298 299 300 302 302 300 302 302 302 301 299 297 295 293 289 284 278 271 257 243 228
294 294 294 293 292 292 292 292 292 293 293 294 295 295 295 296 297 298 300 301 303 302 301 303 304 303 303 301 299 296 294 291 285 278 267 251 235 223
295 295 295 294 293 293 293 293 294 294 293 295 296 295 296 297 298 299 300 302 303 304 303 304 306 305 305 304 300 298 296 293 286 277 261 244 227 219
297 297 296 294 294 293 293 293 293 293 293 294 295 295 296 298 299 300 301 302 304 305 304 305 307 307 307 306 302 299 298 294 287 275 256 237 222 214
299 298 296 296 295 295 294 294 294 293 294 294 294 295 296 297 298 300 301 303 305 306 306 306 308 308 309 309 305 302 301 296 287 271 249 230 216 207
299 298 297 296 296 295 295 295 294 294 294 294 294 295 297 298 299 300 301 303 305 306 307 308 310 310 311 311 309 305 302 298 286 265 240 219 208 201
300 298 298 297 297 296 296 295 295 295 294 294 295 297 298 299 300 301 302 304 305 307 308 310 311 311 311 311 310 308 304 298 284 257 226 208 201 197
301 299 299 298 297 297 296 296 295 295 295 296 297 299 299 300 301 302 303 304 306 307 308 310 312 312 312 312 311 309 306 297 275 239 212 201 196 194
302 301 300 298 297 296 295 295 295 295 296 298 299 300 300 301 302 303 305 306 308 308 308 310 311 312 313 313 312 310 307 296 261 221 204 196 192 190
302 302 300 298 297 296 295 295 296 297 298 299 301 302 302 303 304 305 306 308 310 311 310 311 311 311 313 314 313 312 307 289 242 209 197 192 189 188
303 302 301 300 298 296 295 296 296 298 299 301 303 303 304 305 306 307 308 310 312 313 313 313 312 313 313 313 312 312 304 275 223 199 191 188 186 186
305 303 302 302 300 298 297 298 299 300 302 304 305 305 306 307 308 309 311 313 314 314 315 314 315 315 315 315 313 311 299 251 206 193 187 186 185 184
306 305 304 304 303 300 298 299 301 303 305 307 307 307 308 309 310 312 314 316 316 317 317 316 316 316 315 317 317 313 287 223 196 188 184 184 184 183
308 307 307 307 306 303 302 303 304 306 308 309 309 310 310 311 313 314 316 318 318 319 319 318 318 317 315 317 319 314 263 205 190 185 183 183 183 182
311 309 308 308 308 307 307 307 308 310 311 312 312 312 313 314 315 317 318 319 320 321 322 322 321 319 315 317 318 308 239 197 188 184 184 183 183 182
Height
5607 5602 5597 5592 5586 5581 5576 5571 5566 5562 5559 5555 5547 5540 5533 5528 5523 5518 5513 5507 5502 5496 5490 5483 5477 5471 5464 5457 5450 5444 5437 5430 5424 5418 5415 5412 5411 5411
5589 5584 5579 5574 5568 5563 5558 5553 5547 5542 5539 5536 5528 5521 5514 5508 5502 5497 5492 5486 5479 5472 5466 5458 5451 5444 5436 5429 5421 5414 5407 5399 5393 5388 5384 5380 5379 5379
5572 5567 5562 5556 5551 5545 5539 5534 5528 5523 5519 5517 5510 5502 5495 5488 5482 5476 5470 5464 5457 5449 5442 5434 5425 5417 5409 5401 5393 5385 5377 5370 5364 5359 5354 5351 5349 5350
5555 5549 5544 5538 5532 5527 5521 5515 5510 5504 5500 5497 5492 5484 5477 5469 5462 5456 5450 5443 5436 5428 5419 5410 5401 5393 5384 5375 5366 5358 5350 5343 5337 5332 5328 5325 5323 5324
5537 5531 5526 5520 5514 5508 5502 5497 5491 5485 5480 5477 5473 5466 5458 5450 5442 5437 5429 5422 5414 5405 5397 5388 5379 5369 5360 5350 5341 5333 5325 5318 5312 5307 5303 5300 5299 5300
5519 5514 5508 5502 5496 5490 5484 5478 5472 5466 5461 5456 5453 5447 5440 5431 5422 5416 5410 5402 5394 5384 5375 5366 5357 5348 5338 5328 5319 5310 5302 5295 5289 5284 5280 5277 5276 5278
5502 5496 5490 5484 5478 5471 5465 5460 5453 5447 5442 5437 5433 5427 5421 5412 5404 5396 5389 5383 5375 5363 5354 5346 5336 5328 5318 5308 5298 5289 5281 5274 5268 5262 5258 5256 5256 5259
5484 5478 5472 5465 5459 5453 5447 5441 5435 5429 5424 5418 5413 5408 5402 5393 5384 5376 5368 5362 5357 5347 5333 5328 5316 5308 5299 5289 5280 5270 5262 5255 5248 5243 5239 5237 5238 5242
5466 5460 5454 5448 5441 5435 5428 5422 5416 5410 5405 5400 5395 5389 5382 5374 5365 5358 5349 5341 5335 5325 5313 5309 5299 5289 5280 5270 5261 5252 5243 5236 5229 5224 5221 5220 5222 5227
5449 5442 5436 5430 5423 5416 5411 5405 5399 5393 5387 5381 5376 5371 5363 5355 5346 5339 5331 5324 5318 5308 5295 5288 5282 5272 5264 5254 5243 5234 5226 5218 5212 5207 5204 5204 5208 5214
5431 5425 5418 5412 5405 5398 5393 5389 5383 5377 5369 5364 5358 5352 5345 5337 5328 5321 5314 5306 5301 5294 5280 5269 5263 5255 5249 5239 5228 5217 5209 5201 5195 5191 5189 5190 5195 5201
5414 5407 5401 5394 5388 5381 5376 5372 5367 5361 5354 5348 5342 5336 5329 5321 5313 5305 5297 5290 5283 5278 5268 5255 5247 5238 5233 5227 5213 5203 5194 5186 5180 5176 5175 5177 5182 5189
5396 5390 5384 5377 5371 5365 5360 5356 5351 5345 5339 5334 5328 5321 5314 5307 5300 5291 5283 5275 5268 5262 5253 5243 5234 5224 5215 5211 5202 5190 5180 5173 5167 5164 5163 5166 5172 5181
5380 5374 5368 5362 5356 5350 5345 5340 5335 5329 5324 5319 5314 5308 5301 5294 5287 5279 5271 5263 5255 5248 5240 5230 5221 5212 5203 5196 5189 5180 5170 5161 5156 5154 5154 5157 5164 5175
5364 5358 5352 5347 5341 5336 5330 5325 5320 5315 5310 5305 5300 5294 5288 5281 5274 5267 5260 5252 5245 5236 5228 5219 5210 5202 5192 5184 5177 5169 5161 5153 5147 5146 5147 5152 5161 5171
5348 5343 5337 5332 5327 5322 5317 5311 5306 5302 5297 5292 5287 5282 5275 5269 5262 5255 5248 5241 5235 5228 5218 5209 5200 5192 5184 5176 5168 5160 5152 5146 5142 5141 5143 5150 5158 5169
5334 5329 5324 5319 5314 5309 5304 5299 5294 5289 5285 5280 5275 5269 5263 5257 5251 5244 5237 5231 5224 5218 5210 5201 5192 5184 5176 5169 5161 5154 5147 5141 5138 5138 5142 5149 5158 5170
5321 5316 5310 5305 5301 5296 5292 5287 5283 5278 5274 5269 5263 5258 5252 5246 5241 5234 5227 5220 5214 5207 5200 5193 5185 5178 5171 5163 5156 5150 5143 5139 5137 5138 5142 5150 5159 5171
5308 5303 5298 5293 5289 5285 5280 5276 5272 5268 5263 5258 5253 5248 5242 5236 5230 5225 5218 5211 5205 5198 5191 5184 5177 5171 5166 5160 5154 5147 5142 5138 5137 5140 5144 5152 5161 5173
5297 5292 5287 5282 5278 5274 5270 5266 5262 5258 5253 5249 5243 5238 5233 5227 5222 5216 5209 5203 5196 5190 5184 5177 5171 5165 5160 5156 5151 5146 5141 5139 5139 5142 5147 5154 5163 5175
5287 5282 5277 5273 5268 5264 5261 5257 5253 5249 5245 5240 5235 5229 5224 5219 5213 5207 5201 5195 5188 5183 5177 5172 5166 5161 5157 5153 5150 5146 5143 5141 5141 5144 5150 5157 5167 5180
5278 5274 5269 5264 5260 5256 5253 5249 5245 5241 5237 5232 5227 5222 5216 5211 5206 5200 5194 5188 5183 5177 5172 5167 5163 5158 5155 5152 5149 5146 5144 5143 5145 5148 5155 5162 5172 5186
5271 5266 5262 5258 5254 5250 5246 5242 5238 5234 5229 5224 5219 5214 5209 5204 5199 5194 5188 5183 5178 5173 5168 5164 5160 5156 5153 5151 5148 5147 5145 5146 5148 5153 5159 5167 5177 5189